FW5161 Weather Reports


Display with metric or nautical units.
time (UTC)temp
F
wind
direction
speed
MPH
gust
MPH
rain 1hr
in
rain 24hr
in
rain mn
in
humidity
%
barometer
mb
20260506005538 62 114 13.0 28.0 0.00 0.00 0.00 70 1012.4
20260506005038 62 103 13.0 24.0 0.00 0.00 0.00 70 1012.5
20260506004538 62 221 14.0 24.0 0.00 0.00 0.00 70 1012.5
20260506003802 62 135 14.0 28.0 0.00 0.00 0.00 70 1012.6
20260506002809 63 132 11.0 27.0 0.00 0.00 0.00 69 1012.8
20260506002043 62 140 12.0 22.0 0.00 0.00 0.00 69 1012.8
20260506001539 62 138 12.0 23.0 0.00 0.00 0.00 69 1013.0
20260506001039 62 72 11.0 23.0 0.00 0.00 0.00 69 1013.2
20260506000537 63 110 9.0 22.0 0.00 0.00 0.00 68 1013.1
20260506000039 63 85 8.0 19.0 0.00 0.00 0.00 68 1013.1
20260505235537 64 179 6.0 19.0 0.00 0.00 0.00 65 1013.3
20260505235038 67 164 5.0 14.0 0.00 0.00 0.00 64 1013.3
20260505234537 67 327 4.0 9.0 0.00 0.00 0.00 66 1013.3
20260505234037 65 185 4.0 8.0 0.00 0.00 0.00 64 1013.4
20260505233038 67 311 5.0 9.0 0.00 0.00 0.00 65 1013.5
20260505232037 68 330 4.0 9.0 0.00 0.00 0.00 63 1013.6
20260505231538 67 317 4.0 8.0 0.00 0.00 0.00 64 1013.6
20260505231038 68 316 4.0 8.0 0.00 0.00 0.00 62 1013.6
20260505230538 68 333 4.0 11.0 0.00 0.00 0.00 65 1013.6
20260505230254 66 353 4.0 11.0 0.00 0.00 0.00 62 1013.7
20260505225531 67 72 4.0 13.0 0.00 0.00 0.00 64 1013.7
20260505224531 67 314 3.0 8.0 0.00 0.00 0.00 65 1013.8
20260505224031 66 271 3.0 10.0 0.00 0.00 0.00 64 1013.8
20260505223533 67 312 3.0 10.0 0.00 0.00 0.00 65 1013.8
20260505223031 65 319 4.0 9.0 0.00 0.00 0.00 68 1013.9
20260505222530 65 281 4.0 9.0 0.00 0.00 0.00 66 1014.2
20260505222030 67 359 4.0 10.0 0.00 0.00 0.00 66 1013.9
20260505221529 67 334 4.0 10.0 0.00 0.00 0.00 67 1014.0
20260505221029 66 315 5.0 9.0 0.00 0.00 0.00 68 1014.0
20260505220529 67 305 5.0 9.0 0.00 0.00 0.00 65 1014.1
20260505220031 66 326 3.0 7.0 0.00 0.00 0.00 67 1014.2
20260505215531 66 315 3.0 8.0 0.00 0.00 0.00 68 1014.1
20260505215029 66 312 4.0 8.0 0.00 0.00 0.00 69 1014.1
20260505214803 65 309 5.0 8.0 0.00 0.00 0.00 67 1014.1
20260505214030 65 329 4.0 7.0 0.00 0.00 0.00 69 1014.1
20260505213805 65 314 3.0 7.0 0.00 0.00 0.00 69 1014.2
20260505213023 66 330 3.0 8.0 0.00 0.00 0.00 69 1014.2
20260505212746 65 345 3.0 8.0 0.00 0.00 0.00 68 1014.3
20260505212010 66 323 3.0 8.0 0.00 0.00 0.00 68 1014.3
20260505211509 66 350 3.0 8.0 0.00 0.00 0.00 68 1014.3
20260505211009 66 345 3.0 5.0 0.00 0.00 0.00 70 1014.4
20260505210750 65 341 3.0 6.0 0.00 0.00 0.00 70 1014.4
20260505210011 65 53 2.0 6.0 0.00 0.00 0.00 70 1014.4
20260505205510 65 295 3.0 8.0 0.00 0.00 0.00 69 1014.4
20260505205009 63 324 3.0 8.0 0.00 0.00 0.00 73 1014.5
20260505204508 65 349 3.0 6.0 0.00 0.00 0.00 70 1014.6
20260505204005 64 326 3.0 7.0 0.00 0.00 0.00 73 1014.5
20260505203505 63 304 3.0 7.0 0.00 0.00 0.00 70 1014.5
20260505203006 65 309 4.0 7.0 0.00 0.00 0.00 69 1014.6
20260505202505 63 317 4.0 8.0 0.00 0.00 0.00 72 1014.6
20260505202006 63 312 4.0 8.0 0.00 0.00 0.00 73 1014.7
20260505201742 64 322 4.0 8.0 0.00 0.00 0.00 72 1014.6
20260505201005 63 305 4.0 8.0 0.00 0.00 0.00 71 1014.6
20260505200504 63 356 3.0 6.0 0.00 0.00 0.00 73 1014.6
20260505200003 65 307 3.0 7.0 0.00 0.00 0.00 69 1014.5
20260505195505 65 314 2.0 7.0 0.00 0.00 0.00 68 1014.4
20260505195006 65 359 2.0 5.0 0.00 0.00 0.00 73 1014.5
20260505194503 63 230 3.0 5.0 0.00 0.00 0.00 71 1014.5
20260505194006 64 307 4.0 7.0 0.00 0.00 0.00 71 1014.6
20260505193734 62 319 4.0 7.0 0.00 0.00 0.00 74 1014.5
20260505193003 62 307 3.0 7.0 0.00 0.00 0.00 76 1014.5
20260505192503 61 317 3.0 5.0 0.00 0.00 0.00 76 1014.6
20260505192003 60 320 3.0 5.0 0.00 0.00 0.00 77 1014.5
20260505191502 61 348 3.0 7.0 0.00 0.00 0.00 80 1014.6
20260505191230 60 332 4.0 8.0 0.00 0.00 0.00 78 1014.5
20260505190501 60 315 3.0 8.0 0.00 0.00 0.00 78 1014.5
20260505190001 60 329 3.0 7.0 0.00 0.00 0.00 78 1014.5
20260505185501 60 321 3.0 5.0 0.00 0.00 0.00 78 1014.5
20260505185001 60 340 4.0 9.0 0.00 0.00 0.00 77 1014.5
20260505184503 60 310 4.0 9.0 0.00 0.00 0.00 78 1014.5
20260505184235 60 322 4.0 8.0 0.00 0.00 0.00 78 1014.5
20260505183503 59 322 4.0 7.0 0.00 0.00 0.00 79 1014.5
20260505183004 61 312 4.0 5.0 0.00 0.00 0.00 78 1014.5
20260505182502 60 316 4.0 8.0 0.00 0.00 0.00 79 1014.5
20260505182001 60 310 4.0 8.0 0.00 0.00 0.00 78 1014.4
20260505181455 61 320 3.0 6.0 0.00 0.00 0.00 76 1014.3
20260505180949 61 307 3.0 6.0 0.00 0.00 0.00 77 1014.3
20260505180445 61 335 4.0 9.0 0.00 0.00 0.00 78 1014.2
20260505175945 60 321 3.0 9.0 0.00 0.00 0.00 76 1014.3
20260505175445 61 329 4.0 9.0 0.00 0.00 0.00 78 1014.3
20260505174945 60 317 4.0 9.0 0.00 0.00 0.00 79 1014.4
20260505174445 59 321 3.0 7.0 0.00 0.00 0.00 78 1014.3
20260505173945 60 325 3.0 8.0 0.00 0.00 0.00 78 1014.3
20260505173444 59 350 3.0 8.0 0.00 0.00 0.00 78 1014.2
20260505173220 58 305 3.0 10.0 0.00 0.00 0.00 80 1014.3
20260505172446 58 335 3.0 10.0 0.00 0.00 0.00 79 1014.1
20260505171943 58 354 3.0 8.0 0.00 0.00 0.00 79 1014.1
20260505171441 58 25 3.0 8.0 0.00 0.00 0.00 80 1014.1
20260505170941 58 311 4.0 10.0 0.00 0.00 0.00 79 1014.1
20260505170437 58 332 5.0 10.0 0.00 0.00 0.00 80 1014.0
20260505165937 57 336 4.0 10.0 0.00 0.00 0.00 81 1014.1
20260505165709 57 302 3.0 8.0 0.00 0.00 0.00 80 1013.9
20260505165209 56 345 5.0 12.0 0.00 0.00 0.00 80 1014.0
20260505164436 56 121 6.0 14.0 0.00 0.00 0.00 81 1014.0
20260505163937 55 99 7.0 16.0 0.00 0.00 0.00 83 1013.9
20260505163438 54 124 7.0 19.0 0.00 0.00 0.00 83 1013.9
20260505162937 55 243 7.0 22.0 0.00 0.00 0.00 84 1013.9
20260505162437 54 122 8.0 22.0 0.00 0.00 0.00 84 1013.9
20260505162201 54 106 9.0 22.0 0.00 0.00 0.00 84 1013.8
20260505161431 54 150 11.0 27.0 0.00 0.00 0.00 85 1013.8
20260505160931 53 101 11.0 27.0 0.00 0.00 0.00 84 1013.8
20260505160434 53 207 10.0 24.0 0.00 0.00 0.00 85 1013.7
20260505152928 53 91 10.0 24.0 0.00 0.00 0.00 87 1013.5
20260505152431 53 309 11.0 30.0 0.00 0.00 0.00 87 1013.6
20260505151932 53 95 12.0 30.0 0.00 0.00 0.00 88 1013.4
20260505151424 53 205 14.0 29.0 0.00 0.00 0.00 88 1013.3
20260505150411 53 189 12.0 29.0 0.00 0.00 0.00 88 1013.0
20260505140637 53 140 16.0 38.0 0.00 0.00 0.00 85 1012.1
20260505124901 56 137 16.0 32.0 0.00 0.00 0.00 78 1011.2
20260505124401 57 178 16.0 29.0 0.00 0.00 0.00 77 1011.1
20260505124132 57 89 16.0 27.0 0.00 0.00 0.00 76 1011.0
20260505123400 57 145 16.0 27.0 0.00 0.00 0.00 75 1011.3
20260505122401 57 102 16.0 31.0 0.00 0.00 0.00 74 1010.9
20260505121904 58 220 15.0 27.0 0.00 0.00 0.00 72 1010.8
20260505121406 58 110 16.0 29.0 0.00 0.00 0.00 72 1011.0
20260505121134 58 102 15.0 29.0 0.00 0.00 0.00 71 1011.0
20260505120401 58 133 14.0 27.0 0.00 0.00 0.00 70 1010.7
20260505115901 58 135 13.0 27.0 0.00 0.00 0.00 68 1010.9
20260505115401 58 217 14.0 26.0 0.00 0.00 0.00 70 1010.8
20260505114902 58 152 14.0 34.0 0.00 0.00 0.00 69 1010.8
20260505114401 58 137 14.0 34.0 0.00 0.00 0.00 70 1010.8
20260505113901 59 126 15.0 30.0 0.00 0.00 0.00 67 1010.6
20260505113401 59 85 18.0 34.0 0.00 0.00 0.00 65 1010.7
20260505112902 59 114 18.0 34.0 0.00 0.00 0.00 63 1010.7
20260505112401 59 166 19.0 32.0 0.00 0.00 0.00 65 1010.4
20260505111402 60 110 19.0 34.0 0.00 0.00 0.00 61 1010.6
20260505110902 60 116 19.0 34.0 0.00 0.00 0.00 60 1010.3
20260505110626 60 148 19.0 32.0 0.00 0.00 0.00 59 1010.3
20260505101854 61 152 13.0 23.0 0.00 0.00 0.00 60 1009.9
20260505101354 60 122 12.0 24.0 0.00 0.00 0.00 61 1009.9
20260505100854 61 121 11.0 24.0 0.00 0.00 0.00 60 1009.9
20260505100354 61 156 7.0 18.0 0.00 0.00 0.00 60 1009.8
20260505095854 61 91 5.0 14.0 0.00 0.00 0.00 60 1009.8
20260505095354 61 194 4.0 14.0 0.00 0.00 0.00 60 1009.7
20260505094854 61 166 4.0 14.0 0.00 0.00 0.00 60 1009.6
20260505094354 60 220 3.0 10.0 0.00 0.00 0.00 64 1009.6
20260505093849 59 118 2.0 6.0 0.00 0.00 0.00 68 1009.6
20260505093350 58 116 3.0 6.0 0.00 0.00 0.00 71 1009.6
20260505092850 58 85 2.0 5.0 0.00 0.00 0.00 71 1009.7
20260505092350 58 100 1.0 5.0 0.00 0.00 0.00 71 1009.6
20260505091850 58 82 0.0 2.0 0.00 0.00 0.00 71 1009.6
20260505091352 58 81 0.0 2.0 0.00 0.00 0.00 71 1009.6
20260505090852 58 81 1.0 3.0 0.00 0.00 0.00 70 1009.5
20260505090355 59 81 1.0 5.0 0.00 0.00 0.00 70 1009.4
20260505085852 59 82 1.0 5.0 0.00 0.00 0.00 69 1009.5
20260505085346 59 66 1.0 3.0 0.00 0.00 0.00 70 1009.5
20260505084847 59 58 1.0 3.0 0.00 0.00 0.00 69 1009.5
20260505084348 59 324 0.0 2.0 0.00 0.00 0.00 68 1009.4
20260505083842 61 307 2.0 10.0 0.00 0.00 0.00 66 1009.4
20260505083608 63 306 3.0 11.0 0.00 0.00 0.00 63 1009.3
20260505082340 62 219 3.0 9.0 0.00 0.00 0.00 67 1009.2
20260505081839 62 135 2.0 4.0 0.00 0.00 0.00 66 1009.3
20260505081336 62 128 1.0 3.0 0.00 0.00 0.00 66 1009.3
20260505080836 62 178 1.0 3.0 0.00 0.00 0.00 66 1009.2
20260505080336 62 78 1.0 3.0 0.00 0.00 0.00 65 1009.2
20260505075834 62 78 0.0 3.0 0.00 0.00 0.00 65 1009.1
20260505075329 63 78 1.0 3.0 0.00 0.00 0.00 64 1009.2
20260505074829 63 78 1.0 3.0 0.00 0.00 0.00 64 1009.1
20260505074323 63 78 1.0 3.0 0.00 0.00 0.00 64 1009.0
20260505073817 63 78 1.0 3.0 0.00 0.00 0.00 64 1008.9
20260505073317 63 77 1.0 4.0 0.00 0.00 0.00 63 1008.8
20260505073036 63 77 1.0 4.0 0.00 0.00 0.00 64 1008.8
20260505072314 63 31 1.0 3.0 0.00 0.00 0.00 63 1008.8
20260505071811 64 188 1.0 3.0 0.00 0.00 0.00 62 1008.7
20260505071311 64 190 1.0 3.0 0.00 0.00 0.00 62 1008.6
20260505070808 64 87 1.0 3.0 0.00 0.00 0.00 62 1008.5
20260505070537 65 87 1.0 3.0 0.00 0.00 0.00 61 1008.5
20260505070031 65 87 1.0 2.0 0.00 0.00 0.00 60 1008.5
20260505065304 65 87 1.0 3.0 0.00 0.00 0.00 60 1008.4
20260505064802 65 87 1.0 3.0 0.00 0.00 0.00 60 1008.3
20260505064302 65 87 0.0 3.0 0.00 0.00 0.00 60 1008.3
20260505063801 65 87 0.0 0.0 0.00 0.00 0.00 60 1008.3
20260505063304 65 87 0.0 0.0 0.00 0.00 0.00 60 1008.3
20260505062804 65 87 0.0 0.0 0.00 0.00 0.00 60 1008.3
20260505062301 65 87 0.0 1.0 0.00 0.00 0.00 59 1008.2
20260505061801 66 87 1.0 2.0 0.00 0.00 0.00 59 1008.2
20260505061542 66 87 2.0 2.0 0.00 0.00 0.00 59 1008.2
20260505060801 66 87 1.0 2.0 0.00 0.00 0.00 59 1008.2
20260505060301 66 87 1.0 2.0 0.00 0.00 0.00 57 1008.2
20260505055801 66 87 1.0 3.0 0.00 0.00 0.00 57 1008.2
20260505055301 67 87 1.0 3.0 0.00 0.00 0.00 57 1008.1
20260505055039 67 87 2.0 3.0 0.00 0.00 0.00 56 1008.1
20260505054301 66 87 2.0 3.0 0.00 0.00 0.00 55 1008.1
20260505053805 66 87 2.0 3.0 0.00 0.00 0.00 55 1008.2
20260505053307 67 87 2.0 3.0 0.00 0.00 0.00 54 1008.2
20260505053035 67 87 1.0 3.0 0.00 0.00 0.00 55 1008.1
20260505052300 67 87 1.0 5.0 0.00 0.00 0.00 55 1008.1
20260505052036 68 87 1.0 5.0 0.00 0.00 0.00 55 1008.0
20260505051301 68 87 1.0 2.0 0.00 0.00 0.00 53 1008.0
20260505050801 69 87 1.0 3.0 0.00 0.00 0.00 52 1008.1
20260505050526 69 87 2.0 3.0 0.00 0.00 0.00 52 1007.9
20260505041739 68 64 2.0 3.0 0.00 0.00 0.00 51 1007.7
20260505041244 68 64 1.0 3.0 0.00 0.00 0.00 52 1007.7
20260505040739 69 64 0.0 2.0 0.00 0.00 0.00 51 1007.7
20260505040234 69 64 1.0 3.0 0.00 0.00 0.00 52 1007.6
20260505035732 69 64 2.0 3.0 0.00 0.00 0.00 51 1007.6
20260505035230 69 64 2.0 3.0 0.00 0.00 0.00 50 1007.5
20260505034730 69 64 2.0 3.0 0.00 0.00 0.00 50 1007.4
20260505034230 70 64 2.0 3.0 0.00 0.00 0.00 51 1007.4
20260505033729 70 64 2.0 3.0 0.00 0.00 0.00 51 1007.4
20260505033229 70 58 2.0 3.0 0.00 0.00 0.00 50 1007.3
20260505032729 71 57 2.0 3.0 0.00 0.00 0.00 50 1007.3
20260505032229 71 57 2.0 3.0 0.00 0.00 0.00 49 1007.3
20260505031728 71 56 1.0 3.0 0.00 0.00 0.00 49 1007.3
20260505031229 72 56 0.0 3.0 0.00 0.00 0.00 48 1007.3
20260505030728 73 56 1.0 3.0 0.00 0.00 0.00 48 1007.2
20260505030237 72 53 2.0 3.0 0.00 0.00 0.00 47 1007.2
20260505025732 73 51 1.0 3.0 0.00 0.00 0.00 47 1007.2
20260505025231 74 339 1.0 2.0 0.00 0.00 0.00 46 1007.3
20260505024724 76 333 1.0 4.0 0.00 0.00 0.00 43 1007.2
20260505024225 76 332 1.0 4.0 0.00 0.00 0.00 43 1007.2
20260505023724 77 328 1.0 3.0 0.00 0.00 0.00 42 1007.2
20260505023225 78 328 2.0 3.0 0.00 0.00 0.00 42 1007.2
20260505022723 77 327 2.0 3.0 0.00 0.00 0.00 42 1007.3
20260505022222 78 328 2.0 3.0 0.00 0.00 0.00 39 1007.4
20260505021722 78 317 2.0 3.0 0.00 0.00 0.00 39 1007.4
20260505021454 78 316 2.0 4.0 0.00 0.00 0.00 38 1007.4
20260505020720 78 316 3.0 5.0 0.00 0.00 0.00 39 1007.4
20260505020452 79 312 2.0 5.0 0.00 0.00 0.00 36 1007.5
20260505015723 80 311 2.0 5.0 0.00 0.00 0.00 37 1007.5
20260505015220 80 276 3.0 8.0 0.00 0.00 0.00 37 1007.6
20260505014720 80 251 4.0 8.0 0.00 0.00 0.00 37 1007.6
20260505014221 80 332 3.0 9.0 0.00 0.00 0.00 36 1007.6
20260505013720 80 309 2.0 9.0 0.00 0.00 0.00 37 1007.7
20260505013221 80 326 3.0 8.0 0.00 0.00 0.00 40 1007.6
20260505012724 80 308 4.0 9.0 0.00 0.00 0.00 38 1007.7
20260505012217 79 341 4.0 9.0 0.00 0.00 0.00 40 1007.7
20260505011716 79 343 3.0 6.0 0.00 0.00 0.00 40 1007.7
20260505011216 80 301 3.0 10.0 0.00 0.00 0.00 35 1007.8
20260505010715 80 359 4.0 10.0 0.00 0.00 0.00 34 1007.8
20260505010216 80 299 4.0 9.0 0.00 0.00 0.00 34 1007.8
20260505005716 79 260 4.0 7.0 0.00 0.00 0.00 34 1007.9